Regional Weather Roundup
Issued by NWS

Home | Current Version | Previous Version | Text Only | Print | Product List | Glossary Off
Versions: 1 2 3 4 5 6 7 8 9 10 11 12 13 14 15 16 17 18 19 20 21 22 23 24 25 26 27 28 29 30 31 32 33 34 35 36 37 38 39 40 41 42 43 44 45 46 47 48 49 50

000
ASUS43 KOAX 221902
RWRNE

WEATHER ROUNDUP FOR NEBRASKA
NATIONAL WEATHER SERVICE OMAHA NE
200 PM CDT FRI MAY 22 2015

NOTES: SATELLITE DATA IS BEING USED TO AUGMENT CLOUD COVER ABOVE
       12000 FEET.
       "FAIR" INDICATES FEW OR NO CLOUDS BELOW 12,000 FEET WITH NO
       SIGNIFICANT WEATHER AND/OR OBSTRUCTIONS TO VISIBILITY.

  * THESE STATIONS DO NOT REPORT WEATHER SUCH AS RAIN...SNOW OR FOG.

NEZ001>004-019>022-054>056-222000-
NEBRASKA PANHANDLE

CITY           SKY/WX    TMP DP  RH WIND       PRES   REMARKS
SCOTTSBLUFF    CLOUDY    51  32  48 SE20      30.07S
ALLIANCE       LGT RAIN  49  45  86 SE17      30.09F
CHADRON        CLOUDY    55  42  61 SE17      30.08F
SIDNEY         LGT RAIN  47  45  93 SE21      30.07F FOG
$$

NEZ057>060-069>072-079>082-222000-
SOUTHWEST NEBRASKA

CITY           SKY/WX    TMP DP  RH WIND       PRES   REMARKS
NORTH PLATTE   LGT RAIN  47  45  93 E17       30.17S
IMPERIAL       LGT RAIN  50  47  89 SE20G25   30.09F
LEXINGTON      LGT RAIN  49  47  93 E10       30.20F
MCCOOK         RAIN      50  48  93 E14       30.13S FOG
$$

NEZ005>010-023>029-035>040-094-222000-
NORTH CENTRAL NEBRASKA

CITY           SKY/WX    TMP DP  RH WIND       PRES   REMARKS
VALENTINE      CLOUDY    59  40  49 S20       30.16F
AINSWORTH      CLOUDY    58  44  59 S15       30.19S
BROKEN BOW     LGT RAIN  51  45  79 SE15G23   30.21F
O`NEILL        CLOUDY    62  41  45 S14G21    30.22S
ORD            LGT RAIN  50  45  83 S12       30.23R
$$

NEZ041-046>049-061>064-073>077-083>087-222000-
SOUTH CENTRAL NEBRASKA

CITY           SKY/WX    TMP DP  RH WIND       PRES   REMARKS
GRAND ISLAND   LGT RAIN  54  46  74 SE5       30.24S
HASTINGS       CLOUDY    53  47  79 SE3       30.22F
KEARNEY *      CLOUDY    52  45  76 E10       30.22F
$$

NEZ011>018-030>034-042>045-222000-
NORTHEAST NEBRASKA

CITY           SKY/WX    TMP DP  RH WIND       PRES   REMARKS
NORFOLK        CLOUDY    65  41  41 S16       30.23S
BLAIR          CLOUDY    68  36  30 S10       30.23S
COLUMBUS *     CLOUDY    61  39  44 S8        30.28R
FREMONT        CLOUDY    68  40  36 S9        30.24S
TEKAMAH        CLOUDY    70  42  36 S12       30.22S
$$

NEZ050>053-065>068-078-088>093-222000-
SOUTHEAST NEBRASKA

CITY           SKY/WX    TMP DP  RH WIND       PRES   REMARKS
LINCOLN        CLOUDY    62  46  55 S7        30.25F
OMAHA EPPLEY   CLOUDY    70  39  32 SW10      30.22F
FALLS CITY     CLOUDY    64  48  56 S7        30.24F
NEBRASKA CITY  LGT RAIN  62  42  47 S7        30.26R
PLATTSMOUTH    CLOUDY    64  42  44 S8        30.25R
$$

NEZ044-045-051>053-067-222000-
OMAHA AREA

CITY           SKY/WX    TMP DP  RH WIND       PRES   REMARKS
OMAHA EPPLEY   CLOUDY    70  39  32 SW10      30.22F
BLAIR          CLOUDY    68  36  30 S10       30.23S
FREMONT        CLOUDY    68  40  36 S9        30.24S
OFFUTT AFB     CLOUDY    67  46  46 S8        30.23S
PLATTSMOUTH    CLOUDY    64  42  44 S8        30.25R
$$



USA.gov is the U.S. government's official web portal to all federal, state and local government web resources and services.